TimeEEST,TemperatureF,Dew PointF,Humidity,Sea Level PressureIn,VisibilityMPH,Wind Direction,Wind SpeedMPH,Gust SpeedMPH,PrecipitationIn,Events,Conditions,WindDirDegrees,DateUTC
12:20 AM,57.2,39.2,51,30.36,6.2,Variable,9.2,-,N/A,,Scattered Clouds,0,2011-10-28 21:20:00
12:50 AM,55.4,37.4,51,30.36,6.2,ENE,9.2,-,N/A,,Scattered Clouds,60,2011-10-28 21:50:00
1:20 AM,55.4,37.4,51,30.36,6.2,NE,9.2,-,N/A,,Scattered Clouds,40,2011-10-28 22:20:00
1:50 AM,55.4,37.4,51,30.36,6.2,NNE,13.8,-,N/A,,Scattered Clouds,30,2011-10-28 22:50:00
2:20 AM,55.4,37.4,51,30.36,6.2,NNE,10.4,-,N/A,,Scattered Clouds,20,2011-10-28 23:20:00
2:50 AM,55.4,39.2,54,30.36,6.2,NNE,11.5,-,N/A,,Scattered Clouds,20,2011-10-28 23:50:00
3:00 AM,55,38,42,30.36,6,NNE,11.5,,,,Partly Cloudy,20,2011-10-29 00:00:00
3:20 AM,55.4,39.2,54,30.33,6.2,NNE,11.5,-,N/A,,Scattered Clouds,20,2011-10-29 00:20:00
3:50 AM,53.6,41.0,62,30.33,6.2,NNE,11.5,-,N/A,,Scattered Clouds,20,2011-10-29 00:50:00
4:20 AM,53.6,41.0,62,30.33,6.2,NNE,11.5,-,N/A,,Scattered Clouds,20,2011-10-29 01:20:00
4:50 AM,53.6,41.0,62,30.33,6.2,NNE,10.4,-,N/A,,Scattered Clouds,20,2011-10-29 01:50:00
5:20 AM,53.6,42.8,67,30.33,6.2,NNE,9.2,-,N/A,,Scattered Clouds,30,2011-10-29 02:20:00
5:50 AM,55.4,42.8,63,30.33,6.2,NNE,11.5,-,N/A,,Scattered Clouds,30,2011-10-29 02:50:00
6:20 AM,55.4,41.0,58,30.33,6.2,NNE,15.0,-,N/A,,Scattered Clouds,30,2011-10-29 03:20:00
6:50 AM,55.4,41.0,58,30.33,6.2,NNE,13.8,-,N/A,,Scattered Clouds,20,2011-10-29 03:50:00
7:20 AM,55.4,41.0,58,30.33,6.2,NNE,15.0,-,N/A,,Scattered Clouds,20,2011-10-29 04:20:00
7:50 AM,55.4,41.0,58,30.33,6.2,NNE,11.5,-,N/A,,Scattered Clouds,30,2011-10-29 04:50:00
8:20 AM,55.4,42.8,63,30.33,6.2,NNE,11.5,-,N/A,,Scattered Clouds,20,2011-10-29 05:20:00
8:50 AM,55.4,41.0,58,30.33,6.2,NNE,11.5,-,N/A,,Mostly Cloudy,30,2011-10-29 05:50:00
9:00 AM,56,41,45,30.36,6,NNE,11.5,,,,Mostly Cloudy,30,2011-10-29 06:00:00
9:20 AM,55.4,41.0,58,30.33,6.2,NNE,11.5,-,N/A,,Mostly Cloudy,20,2011-10-29 06:20:00
9:50 AM,55.4,42.8,63,30.33,6.2,Variable,9.2,-,N/A,,Mostly Cloudy,0,2011-10-29 06:50:00
10:20 AM,55.4,41.0,58,30.33,6.2,NE,12.7,-,N/A,,Mostly Cloudy,50,2011-10-29 07:20:00
10:50 AM,55.4,39.2,54,30.33,6.2,NE,12.7,-,N/A,,Mostly Cloudy,40,2011-10-29 07:50:00
11:20 AM,55.4,39.2,54,30.36,6.2,NE,10.4,-,N/A,,Mostly Cloudy,40,2011-10-29 08:20:00
11:50 AM,55.4,39.2,54,30.36,6.2,NE,15.0,-,N/A,,Mostly Cloudy,40,2011-10-29 08:50:00
12:20 PM,55.4,39.2,54,30.33,6.2,NE,12.7,-,N/A,,Mostly Cloudy,40,2011-10-29 09:20:00
12:50 PM,59.0,39.2,48,30.33,6.2,NE,11.5,-,N/A,,Mostly Cloudy,40,2011-10-29 09:50:00
1:20 PM,59.0,37.4,45,30.33,6.2,ENE,11.5,-,N/A,,Mostly Cloudy,60,2011-10-29 10:20:00
1:50 PM,59.0,39.2,48,30.33,6.2,NNE,10.4,-,N/A,,Mostly Cloudy,30,2011-10-29 10:50:00
2:20 PM,57.2,37.4,48,30.33,6.2,NNE,13.8,-,N/A,,Mostly Cloudy,30,2011-10-29 11:20:00
2:50 PM,57.2,39.2,51,30.30,6.2,NNE,15.0,-,N/A,,Mostly Cloudy,30,2011-10-29 11:50:00
3:00 PM,57,39,39,30.33,6,NNE,15.0,,,,Mostly Cloudy,30,2011-10-29 12:00:00
3:20 PM,57.2,39.2,51,30.30,6.2,NNE,16.1,-,N/A,,Mostly Cloudy,20,2011-10-29 12:20:00
3:50 PM,57.2,39.2,51,30.33,6.2,NNE,12.7,-,N/A,,Mostly Cloudy,30,2011-10-29 12:50:00
4:20 PM,57.2,39.2,51,30.30,6.2,NNE,15.0,-,N/A,,Mostly Cloudy,30,2011-10-29 13:20:00
4:50 PM,57.2,39.2,51,30.30,6.2,NE,12.7,-,N/A,,Mostly Cloudy,50,2011-10-29 13:50:00
5:20 PM,55.4,37.4,51,30.30,6.2,NE,16.1,-,N/A,,Mostly Cloudy,50,2011-10-29 14:20:00
5:50 PM,55.4,37.4,51,30.30,6.2,NE,11.5,-,N/A,,Mostly Cloudy,40,2011-10-29 14:50:00
6:20 PM,55.4,37.4,51,30.30,6.2,NE,15.0,-,N/A,,Mostly Cloudy,40,2011-10-29 15:20:00
6:50 PM,55.4,39.2,54,30.33,6.2,NE,11.5,-,N/A,,Mostly Cloudy,50,2011-10-29 15:50:00
7:20 PM,55.4,37.4,51,30.33,6.2,NNE,12.7,-,N/A,,Mostly Cloudy,30,2011-10-29 16:20:00
7:50 PM,55.4,37.4,51,30.33,6.2,NE,11.5,-,N/A,,Scattered Clouds,40,2011-10-29 16:50:00
8:20 PM,57.2,39.2,51,30.33,6.2,NE,10.4,-,N/A,,Mostly Cloudy,50,2011-10-29 17:20:00
8:50 PM,55.4,39.2,54,30.33,6.2,NE,13.8,-,N/A,,Mostly Cloudy,50,2011-10-29 17:50:00
9:00 PM,55,40,45,30.33,6,NE,13.8,,,,Mostly Cloudy,50,2011-10-29 18:00:00
9:20 PM,55.4,39.2,54,30.33,6.2,NE,12.7,-,N/A,,Mostly Cloudy,40,2011-10-29 18:20:00
9:50 PM,53.6,39.2,58,30.33,6.2,NE,11.5,-,N/A,,Mostly Cloudy,40,2011-10-29 18:50:00
10:20 PM,53.6,37.4,54,30.33,6.2,NE,10.4,-,N/A,,Mostly Cloudy,50,2011-10-29 19:20:00
10:50 PM,53.6,37.4,54,30.30,6.2,NE,10.4,-,N/A,,Mostly Cloudy,50,2011-10-29 19:50:00
11:20 PM,53.6,37.4,54,30.33,6.2,NNE,9.2,-,N/A,,Mostly Cloudy,30,2011-10-29 20:20:00
11:50 PM,53.6,37.4,54,30.30,6.2,NNE,10.4,-,N/A,,Mostly Cloudy,20,2011-10-29 20:50:00